Waarnemingen

Advertentie
Mijn weer
Loch Glascarnoch, Groot Brittannië (3031): temperatuur & dauwpunt: 18.01.2018 05:00:00 - 24.01.2018 05:00:00 (GMT)Loch Glascarnoch, Groot Brittannië (3031): windsnelheid & windstoten: 18.01.2018 05:00:00 - 24.01.2018 05:00:00 (GMT)Loch Glascarnoch, Groot Brittannië (3031): windrichting: 18.01.2018 05:00:00 - 24.01.2018 05:00:00 (GMT)Loch Glascarnoch, Groot Brittannië (3031): luchtdruk: 18.01.2018 05:00:00 - 24.01.2018 05:00:00 (GMT)Loch Glascarnoch, Groot Brittannië (3031): zicht: 18.01.2018 05:00:00 - 24.01.2018 05:00:00 (GMT)Loch Glascarnoch, Groot Brittannië (3031): Zonneschijnduur: 18.01.2018 05:00:00 - 24.01.2018 05:00:00 (GMT)Loch Glascarnoch, Groot Brittannië (3031): neerslag: 18.01.2018 05:00:00 - 24.01.2018 05:00:00 (GMT)
Datum & Tijd tt [°C] td [°C] ff [km/u] ff [kn] fx [km/u] fx [kn] dd ppp [hPa] vv [km] sd [min] rr [mm]
24.01.2018 05:00:00 1,9 1,4 26 14 - - OZO 979,1 13 0 2,0
24.01.2018 04:00:00 1,7 1,2 21 11 - - OZO 982,4 8 0 2,6
24.01.2018 03:00:00 2,3 1,5 24 13 - - ZO 985,8 6 0 2,8
24.01.2018 02:00:00 3,4 2,3 16 9 - - OZO 989,0 18 0 0,2
24.01.2018 01:00:00 2,9 1,7 22 12 - - OZO 991,4 13 0 0,0
24.01.2018 00:00:00 4,3 1,5 13 7 - - ZZW 992,9 25 - 0,0
23.01.2018 23:00:00 4,1 0,4 22 12 - - WZW 993,8 20 0 0,0
23.01.2018 22:00:00 4,5 0,6 21 11 55 30 WZW 993,9 23 0 0,0
23.01.2018 21:00:00 4,7 -0,4 35 19 65 35 W 994,1 40 0 0,0
23.01.2018 20:00:00 4,5 -0,1 39 21 65 35 WZW 993,7 45 0 0,0
23.01.2018 19:00:00 4,8 0,7 39 21 55 30 WZW 993,1 35 0 0,2
23.01.2018 18:00:00 5,2 1,7 41 22 59 32 WZW 992,7 45 0 1,6
23.01.2018 17:00:00 5,5 3,7 35 19 57 31 ZW 992,2 5 0 1,4
23.01.2018 16:00:00 6,3 3,6 34 18 55 30 ZW 992,0 15 0 0,8
23.01.2018 15:00:00 5,8 3,7 39 21 57 31 WZW 992,5 8 0 0,4
23.01.2018 14:00:00 6,7 2,8 34 18 65 35 WZW 992,3 40 6 0,0
23.01.2018 13:00:00 7,2 3,0 39 21 67 36 W 992,3 50 12 0,2
23.01.2018 12:00:00 7,6 4,8 37 20 63 34 WZW 991,9 45 0 1,8
23.01.2018 11:00:00 6,7 6,4 11 6 - - WZW 992,2 11 0 1,6
23.01.2018 10:00:00 4,7 4,4 11 6 - - O 993,1 9 0 3,6
23.01.2018 09:00:00 4,8 4,2 4 2 - - O 994,2 9 0 3,6
23.01.2018 08:00:00 6,2 4,9 2 1 - - ZZW 995,2 8 0 4,2
23.01.2018 07:00:00 7,6 6,0 18 10 - - WZW 995,2 5 0 1,4
23.01.2018 06:00:00 7,5 6,0 24 13 48 26 ZW 995,9 5 0 0,0
23.01.2018 05:00:00 7,4 6,2 21 11 48 26 ZW 997,3 4,6 0 1,2
23.01.2018 04:00:00 7,3 6,0 22 12 48 26 ZW 998,0 7 0 0,8
23.01.2018 03:00:00 6,9 5,0 24 13 - - ZZW 999,0 15 0 0,6
23.01.2018 02:00:00 6,8 5,0 21 11 48 26 ZZW 999,9 17 0 0,2
23.01.2018 01:00:00 6,8 5,2 15 8 54 29 ZZW 1001,1 10 0 0,0
23.01.2018 00:00:00 6,3 4,9 31 17 54 29 ZW 1002,3 12 - 0,2
22.01.2018 23:00:00 6,0 4,6 31 17 54 29 ZW 1002,6 3,9 0 0,2
22.01.2018 22:00:00 5,8 3,9 31 17 52 28 ZW 1003,0 7 0 0,0
22.01.2018 21:00:00 5,4 2,6 16 9 - - ZW 1003,8 19 0 0,0
22.01.2018 20:00:00 5,4 1,0 22 12 55 30 W 1004,1 22 0 0,0
22.01.2018 19:00:00 5,0 1,0 13 7 50 27 W 1004,2 40 0 0,0
22.01.2018 18:00:00 4,7 2,6 26 14 52 28 WNW 1004,1 17 0 0,0
22.01.2018 17:00:00 4,8 2,2 21 11 46 25 W 1003,7 12 0 0,0
22.01.2018 16:00:00 4,8 1,6 34 18 81 44 WNW 1001,8 18 0 0,0
22.01.2018 15:00:00 4,5 1,0 50 27 70 38 W 1000,8 19 30 0,0
22.01.2018 14:00:00 4,6 2,0 48 26 70 38 W 1001,0 11 6 0,0
22.01.2018 13:00:00 4,3 2,4 46 25 59 32 W 1000,8 6 0 0,8
22.01.2018 12:00:00 4,2 2,0 50 27 70 38 W 999,4 15 0 0,0
22.01.2018 11:00:00 4,5 2,7 48 26 67 36 W 998,5 13 0 0,2
22.01.2018 10:00:00 4,1 2,1 50 27 70 38 W 997,7 17 0 0,2
22.01.2018 09:00:00 3,9 2,4 41 22 59 32 W 997,4 4,1 0 0,2
22.01.2018 08:00:00 3,7 1,7 37 20 61 33 W 996,9 12 0 0,0
22.01.2018 07:00:00 3,9 1,5 44 24 59 32 W 996,1 12 0 0,0
22.01.2018 06:00:00 4,4 1,4 42 23 65 35 W 995,5 28 0 0,0
22.01.2018 05:00:00 4,0 1,2 39 21 63 34 W 995,2 14 0 0,0
22.01.2018 04:00:00 4,2 1,5 37 20 59 32 W 995,1 19 0 0,0
22.01.2018 03:00:00 4,8 1,3 35 19 50 27 W 994,8 26 0 1,2
22.01.2018 02:00:00 3,9 1,3 35 19 57 31 W 995,0 13 0 0,0
22.01.2018 01:00:00 4,5 1,2 35 19 50 27 WZW 994,6 17 0 0,0
22.01.2018 00:00:00 4,4 1,6 31 17 52 28 W 994,5 19 - 0,0
21.01.2018 23:00:00 3,7 1,1 35 19 50 27 W 994,3 20 0 0,0
21.01.2018 22:00:00 4,1 2,2 31 17 46 25 W 994,1 15 0 0,0
21.01.2018 21:00:00 4,0 1,8 35 19 46 25 W 993,9 18 0 0,0
21.01.2018 20:00:00 3,0 2,2 16 9 - - WNW 994,0 8 0 0,0
21.01.2018 19:00:00 3,8 3,5 13 7 - - W 993,8 12 0 0,0
21.01.2018 18:00:00 1,4 0,8 16 9 - - ZZO 994,1 8 0 0,0
21.01.2018 17:00:00 0,2 0,0 29 16 - - OZO 994,4 6 0 0,0
21.01.2018 16:00:00 -0,3 -0,3 29 16 - - O 996,0 2,0 0 0,0
21.01.2018 15:00:00 -1,0 -1,1 34 18 - - O 997,8 1,1 0 0,0
21.01.2018 14:00:00 -0,7 -3,4 22 12 - - OZO 1000,2 5 0 0,0
21.01.2018 13:00:00 -0,4 -3,9 22 12 - - O 1001,8 45 0 0,0
21.01.2018 12:00:00 -0,8 -4,3 18 10 - - OZO 1003,9 50 0 0,0
21.01.2018 11:00:00 -1,8 -4,7 16 9 - - OZO 1005,4 35 0 0,0
21.01.2018 10:00:00 -1,7 -4,7 15 8 - - ZO 1007,4 50 0 0,0
21.01.2018 09:00:00 -2,3 -3,6 15 8 - - OZO 1008,1 50 0 0,0
21.01.2018 08:00:00 -8,2 -8,7 2 1 - - O 1009,4 50 0 0,0
21.01.2018 07:00:00 -11,1 -12,4 4 2 - - W 1010,0 1,4 0 0,0
21.01.2018 06:00:00 -9,7 -10,9 2 1 - - O 1010,8 13 0 0,0
21.01.2018 05:00:00 -8,6 -9,4 4 2 - - O 1011,9 50 0 0,0
21.01.2018 04:00:00 -8,6 -9,3 2 1 - - O 1012,0 50 0 0,0
21.01.2018 03:00:00 -8,6 -9,3 5 3 - - W 1012,0 1,7 0 0,0
21.01.2018 02:00:00 -10,5 -11,6 2 1 - - ZO 1012,5 6 0 0,0
21.01.2018 01:00:00 -8,5 -9,3 2 1 - - W 1012,1 50 0 0,0
21.01.2018 00:00:00 -9,1 -9,8 4 2 - - ONO 1011,8 50 - 0,0
20.01.2018 23:00:00 -10,3 -11,6 2 1 - - O 1011,6 1,8 0 0,0
20.01.2018 22:00:00 -9,3 -10,1 5 3 - - W 1011,1 50 0 0,0
20.01.2018 21:00:00 -8,4 -9,4 2 1 - - W 1010,3 50 0 0,0
20.01.2018 20:00:00 -7,2 -8,2 8 4 - - WZW 1009,3 50 0 0,0
20.01.2018 19:00:00 -5,9 -6,6 9 5 - - WNW 1008,1 15 0 0,0
20.01.2018 18:00:00 -4,3 -4,7 9 5 - - WNW 1006,9 50 0 0,0
20.01.2018 17:00:00 -4,2 -4,8 5 3 - - W 1005,8 5 0 0,0
20.01.2018 16:00:00 -3,1 -3,5 8 4 - - WNW 1004,6 1,3 18 0,0
20.01.2018 15:00:00 -3,9 -4,8 9 5 - - NW 1003,6 45 54 0,0
20.01.2018 14:00:00 -4,8 -5,7 8 4 - - WNW 1002,6 10 18 0,0
20.01.2018 13:00:00 -5,1 -5,7 4 2 - - WZW 1001,8 0,9 24 0,0
20.01.2018 12:00:00 -7,2 -8,7 2 1 - - WNW 1001,4 45 60 0,0
20.01.2018 11:00:00 -7,0 -7,7 0 0 - - N 1000,8 45 36 0,0
20.01.2018 10:00:00 -9,2 -10,0 4 2 - - W 1000,6 40 0 0,0
20.01.2018 09:00:00 -8,4 -9,3 2 1 - - WZW 1000,0 9 0 0,0
20.01.2018 08:00:00 -9,5 -10,7 4 2 - - W 999,4 45 0 0,0
20.01.2018 07:00:00 -8,3 -9,8 2 1 - - WZW 998,7 50 0 0,0
20.01.2018 06:00:00 -3,3 -3,8 4 2 - - WZW 997,8 50 0 0,0
20.01.2018 05:00:00 -2,6 -3,3 4 2 - - O 997,5 1,6 0 0,0
20.01.2018 04:00:00 -1,6 -1,8 4 2 - - ONO 997,3 3,9 0 0,0
20.01.2018 03:00:00 -6,4 -7,9 2 1 - - WZW 998,1 50 0 0,0
20.01.2018 02:00:00 -3,2 -4,4 4 2 - - NW 997,8 50 0 0,0
20.01.2018 01:00:00 -0,9 -1,2 15 8 - - WZW 997,2 1,3 0 0,0
20.01.2018 00:00:00 -1,4 -1,7 4 2 - - WNW 997,2 1,8 - 0,0
19.01.2018 23:00:00 -0,8 -1,2 16 9 - - WNW 996,9 0,3 0 0,0
19.01.2018 22:00:00 -1,3 -1,7 4 2 - - WNW 997,1 1,4 0 0,0
19.01.2018 21:00:00 -1,2 -1,5 13 7 - - ZW 997,2 0,4 0 0,0
19.01.2018 20:00:00 -0,8 -1,7 9 5 - - W 996,9 6 0 0,0
19.01.2018 19:00:00 -2,0 -2,9 13 7 - - NW 996,8 50 0 0,0
19.01.2018 18:00:00 -1,3 -2,1 24 13 - - W 996,5 45 0 0,0
19.01.2018 17:00:00 -0,6 -2,0 35 19 50 27 W 995,9 1,5 0 0,0
19.01.2018 16:00:00 -0,1 -3,2 15 8 - - W 995,9 50 0 0,0
19.01.2018 15:00:00 0,4 -1,8 11 6 - - WZW 995,8 30 0 0,0
19.01.2018 14:00:00 0,8 -2,7 18 10 - - WZW 995,6 50 30 0,0
19.01.2018 13:00:00 0,0 -3,8 24 13 - - WZW 995,5 50 42 0,0
19.01.2018 12:00:00 0,7 -2,8 18 10 - - WZW 995,6 40 36 0,0
19.01.2018 11:00:00 -1,1 -3,9 4 2 - - NNW 995,9 40 6 0,0
19.01.2018 10:00:00 -0,8 -3,1 15 8 - - WZW 995,6 50 0 0,0
19.01.2018 09:00:00 -0,5 -1,6 15 8 - - ZW 995,4 6 0 0,0
19.01.2018 08:00:00 -2,5 -4,2 9 5 - - WZW 995,6 45 0 0,0
19.01.2018 07:00:00 -5,6 -7,3 8 4 - - W 996,2 45 0 0,0
19.01.2018 06:00:00 -1,8 -2,4 4 2 - - ZZW 996,0 3,7 0 0,0
19.01.2018 05:00:00 -1,5 -2,3 11 6 - - W 996,2 0,9 0 0,0
19.01.2018 04:00:00 -4,2 -6,3 2 1 - - ZZW 996,3 50 0 0,0
19.01.2018 03:00:00 -2,0 -2,9 4 2 - - ZZW 996,5 50 0 0,0
19.01.2018 02:00:00 -2,3 -3,0 8 4 - - ZW 996,4 50 0 0,0
19.01.2018 01:00:00 -0,6 -1,0 15 8 - - W 996,7 0,2 0 0,0
19.01.2018 00:00:00 -1,5 -3,0 13 7 - - WNW 996,5 50 - 0,0
18.01.2018 23:00:00 -1,5 -2,5 9 5 - - WNW 996,4 50 0 0,0
18.01.2018 22:00:00 -0,5 -0,9 8 4 - - WZW 996,4 19 0 0,0
18.01.2018 21:00:00 -1,6 -2,7 5 3 - - WZW 996,7 45 0 0,0
18.01.2018 20:00:00 -0,1 -0,7 29 16 - - W 996,4 0,4 0 0,0
18.01.2018 19:00:00 -0,4 -1,0 8 4 - - W 996,0 15 0 0,0
18.01.2018 18:00:00 0,8 -0,8 13 7 - - W 995,6 9 0 0,0
18.01.2018 17:00:00 0,0 -1,0 4 2 - - ONO 995,3 5 0 0,0
18.01.2018 16:00:00 -0,3 -1,3 11 6 - - W 994,7 45 0 0,0
18.01.2018 15:00:00 0,6 -0,5 16 9 - - W 994,3 2,9 18 0,6
18.01.2018 14:00:00 1,4 -2,6 18 10 - - W 993,9 45 60 2,4
18.01.2018 13:00:00 1,5 -1,1 9 5 - - W 993,6 27 24 0,0
18.01.2018 12:00:00 0,4 -0,5 15 8 - - WNW 993,6 1,2 0 0,0
18.01.2018 11:00:00 0,5 -1,3 5 3 - - WNW 993,2 50 24 0,0
18.01.2018 10:00:00 0,1 -1,1 15 8 - - WZW 992,4 50 0 0,0
18.01.2018 09:00:00 -0,5 -1,0 9 5 - - WZW 992,2 45 0 0,0
18.01.2018 08:00:00 -0,3 -1,1 15 8 - - W 991,8 1,0 0 0,0
18.01.2018 07:00:00 -2,2 -3,5 11 6 - - W 991,2 45 0 0,0
18.01.2018 06:00:00 -2,8 -4,1 11 6 - - WNW 990,9 35 0 0,0
18.01.2018 05:00:00 0,2 -0,2 15 8 - - W 990,1 2,4 0 0,0

tt = temperatuur
td = dauwpunt
ff = windsnelheid
fx = windstoten
dd = windrichting
ppp = luchtdruk
vv = zicht
sd = Zonneschijnduur
rr = neerslag

Weerstations in de omgeving